When you browse on this site, cookies collect data to enhance your experience and personalize the content and advertising you see.
Visit our Privacy Policy to learn more. By continuing to use the site, you agree to this use of cookies and data.
  • In Sweden
  • List of Countries
  • For 7 days
  • Water Temperature
  • Weather Map
  • Weather Widgets
  • user-avatar
    Login

    Hourly Weather Trushniki

    Today, 27 January, Monday

    Time Temperature Precipitation Wind Pressure Humidity
    00:00 -16°C° 0 mm 3 mps 734 mmHg 94%
    01:00 -17°C° 0 mm 3 mps 735 mmHg 94%
    02:00 -17°C° 0 mm 3 mps 735 mmHg 94%
    03:00 -18°C° 0 mm 3 mps 736 mmHg 94%
    04:00 -18°C° 0 mm 3 mps 735 mmHg 96%
    05:00 -19°C° 0 mm 3 mps 736 mmHg 97%
    06:00 -21°C° 0 mm 3 mps 736 mmHg 97%
    07:00 -20°C° 0 mm 2 mps 736 mmHg 98%
    08:00 -20°C° 0 mm 2 mps 736 mmHg 98%
    09:00 -20°C° 0 mm 2 mps 736 mmHg 98%
    10:00 -17°C° 0 mm 1 mps 737 mmHg 97%
    11:00 -16°C° 0 mm 1 mps 737 mmHg 95%
    12:00 -15°C° 0 mm 1 mps 737 mmHg 94%
    13:00 -15°C° 0 mm 1 mps 737 mmHg 92%
    14:00 -15°C° 0 mm 1 mps 737 mmHg 93%
    15:00 -15°C° 0 mm 1 mps 737 mmHg 94%
    16:00 -15°C° 0 mm 0 mps 737 mmHg 97%
    17:00 -15°C° 0 mm 1 mps 738 mmHg 96%
    18:00 -15°C° 0 mm 1 mps 738 mmHg 96%
    19:00 -16°C° 0 mm 1 mps 739 mmHg 96%
    20:00 -18°C° 0 mm 2 mps 740 mmHg 96%
    21:00 -18°C° 0 mm 2 mps 740 mmHg 95%
    22:00 -19°C° 0 mm 2 mps 741 mmHg 95%
    23:00 -19°C° 0 mm 2 mps 742 mmHg 95%

    Tomorrow, 28 January, Tuesday

    Time Temperature Precipitation Wind Pressure Humidity
    00:00 -19°C° 0 mm 2 mps 742 mmHg 95%
    01:00 -19°C° 0 mm 2 mps 743 mmHg 95%
    02:00 -20°C° 0 mm 2 mps 744 mmHg 96%
    03:00 -23°C° 0 mm 3 mps 745 mmHg 96%
    04:00 -24°C° 0 mm 3 mps 746 mmHg 96%
    05:00 -25°C° 0 mm 3 mps 747 mmHg 96%
    06:00 -27°C° 0 mm 3 mps 748 mmHg 96%
    07:00 -27°C° 0 mm 2 mps 748 mmHg 96%
    08:00 -27°C° 0 mm 2 mps 749 mmHg 96%
    09:00 -26°C° 0 mm 2 mps 750 mmHg 95%
    10:00 -26°C° 0 mm 2 mps 751 mmHg 95%
    11:00 -25°C° 0 mm 2 mps 752 mmHg 94%
    12:00 -24°C° 0 mm 2 mps 752 mmHg 94%
    13:00 -23°C° 0 mm 2 mps 753 mmHg 93%
    14:00 -23°C° 0 mm 2 mps 753 mmHg 94%
    15:00 -24°C° 0 mm 2 mps 754 mmHg 95%
    16:00 -25°C° 0 mm 2 mps 754 mmHg 96%
    17:00 -26°C° 0 mm 2 mps 755 mmHg 97%
    18:00 -27°C° 0 mm 2 mps 756 mmHg 98%
    19:00 -28°C° 0 mm 2 mps 756 mmHg 99%
    20:00 -28°C° 0 mm 2 mps 757 mmHg 99%
    21:00 -27°C° 0 mm 1 mps 757 mmHg 99%
    22:00 -27°C° 0 mm 1 mps 757 mmHg 99%
    23:00 -27°C° 0 mm 1 mps 757 mmHg 99%

    Day after tomorrow, 29 January, Wednesday

    Time Temperature Precipitation Wind Pressure Humidity
    00:00 -28°C° 0 mm 1 mps 757 mmHg 99%
    01:00 -30°C° 0 mm 2 mps 758 mmHg 99%
    02:00 -30°C° 0 mm 2 mps 758 mmHg 99%
    03:00 -30°C° 0 mm 2 mps 758 mmHg 99%
    04:00 -30°C° 0 mm 2 mps 758 mmHg 98%
    05:00 -29°C° 0 mm 2 mps 758 mmHg 98%
    06:00 -28°C° 0 mm 2 mps 758 mmHg 97%
    07:00 -28°C° 0 mm 2 mps 758 mmHg 97%
    08:00 -27°C° 0 mm 2 mps 758 mmHg 97%
    09:00 -26°C° 0 mm 2 mps 758 mmHg 96%
    10:00 -25°C° 0 mm 2 mps 758 mmHg 96%
    11:00 -23°C° 0 mm 2 mps 758 mmHg 95%
    12:00 -23°C° 0 mm 3 mps 758 mmHg 94%
    13:00 -21°C° 0 mm 3 mps 757 mmHg 93%
    14:00 -21°C° 0 mm 3 mps 757 mmHg 93%
    15:00 -19°C° 0 mm 2 mps 757 mmHg 93%
    16:00 -18°C° 0 mm 2 mps 757 mmHg 93%
    17:00 -19°C° 0 mm 3 mps 757 mmHg 93%
    18:00 -19°C° 0 mm 3 mps 757 mmHg 92%
    19:00 -19°C° 0 mm 3 mps 757 mmHg 92%
    20:00 -18°C° 0 mm 3 mps 756 mmHg 91%
    21:00 -18°C° 0 mm 3 mps 756 mmHg 89%
    22:00 -18°C° 0 mm 3 mps 756 mmHg 88%
    23:00 -18°C° 0 mm 3 mps 756 mmHg 88%

    30 January, Thursday

    Time Temperature Precipitation Wind Pressure Humidity
    00:00 -17°C° 0 mm 3 mps 756 mmHg 87%
    01:00 -17°C° 0 mm 3 mps 755 mmHg 86%
    02:00 -17°C° 0 mm 3 mps 755 mmHg 86%
    03:00 -16°C° 0 mm 3 mps 755 mmHg 86%
    04:00 -16°C° 0 mm 3 mps 755 mmHg 86%
    05:00 -16°C° 0 mm 3 mps 755 mmHg 87%
    06:00 -17°C° 0 mm 3 mps 754 mmHg 88%
    07:00 -17°C° 0 mm 3 mps 754 mmHg 89%
    08:00 -16°C° 0 mm 3 mps 754 mmHg 87%
    09:00 -16°C° 0 mm 3 mps 754 mmHg 86%
    10:00 -15°C° 0 mm 3 mps 754 mmHg 84%
    11:00 -14°C° 0 mm 3 mps 753 mmHg 85%
    12:00 -14°C° 0 mm 3 mps 753 mmHg 86%
    13:00 -13°C° 0 mm 3 mps 753 mmHg 86%
    14:00 -12°C° 0 mm 3 mps 752 mmHg 89%
    15:00 -10°C° 0 mm 2 mps 752 mmHg 91%
    16:00 -10°C° 0 mm 2 mps 752 mmHg 94%
    17:00 -10°C° 0 mm 2 mps 752 mmHg 94%
    18:00 -10°C° 0 mm 2 mps 752 mmHg 95%
    19:00 -10°C° 0 mm 2 mps 752 mmHg 96%
    20:00 -10°C° 0.2 mm 2 mps 751 mmHg 96%
    21:00 -9°C° 0.2 mm 2 mps 751 mmHg 96%
    22:00 -9°C° 0.2 mm 2 mps 751 mmHg 96%
    23:00 -9°C° 0.2 mm 2 mps 751 mmHg 96%

    31 January, Friday

    Time Temperature Precipitation Wind Pressure Humidity
    00:00 -8°C° 0.2 mm 2 mps 751 mmHg 96%
    01:00 -8°C° 0.2 mm 2 mps 751 mmHg 96%
    02:00 -8°C° 0.1 mm 2 mps 751 mmHg 95%
    03:00 -8°C° 0.1 mm 2 mps 751 mmHg 95%
    04:00 -9°C° 0.1 mm 3 mps 751 mmHg 95%
    05:00 -9°C° 0 mm 3 mps 751 mmHg 95%
    06:00 -9°C° 0 mm 3 mps 751 mmHg 95%
    07:00 -9°C° 0 mm 3 mps 751 mmHg 95%
    08:00 -9°C° 0 mm 3 mps 750 mmHg 95%
    09:00 -10°C° 0 mm 4 mps 750 mmHg 94%
    10:00 -10°C° 0 mm 4 mps 750 mmHg 94%
    11:00 -9°C° 0 mm 4 mps 750 mmHg 94%
    12:00 -9°C° 0 mm 4 mps 750 mmHg 93%
    13:00 -9°C° 0 mm 4 mps 750 mmHg 93%
    14:00 -8°C° 0 mm 3 mps 750 mmHg 93%
    15:00 -8°C° 0 mm 3 mps 749 mmHg 92%
    16:00 -9°C° 0 mm 3 mps 749 mmHg 92%
    17:00 -9°C° 0 mm 3 mps 749 mmHg 92%
    18:00 -9°C° 0 mm 2 mps 749 mmHg 91%
    19:00 -10°C° 0 mm 2 mps 749 mmHg 91%
    20:00 -10°C° 0 mm 2 mps 748 mmHg 90%
    21:00 -10°C° 0 mm 2 mps 748 mmHg 89%
    22:00 -10°C° 0 mm 2 mps 748 mmHg 89%
    23:00 -9°C° 0 mm 2 mps 748 mmHg 88%

    1 February, Saturday

    Time Temperature Precipitation Wind Pressure Humidity
    00:00 -9°C° 0 mm 2 mps 747 mmHg 88%
    01:00 -8°C° 0 mm 2 mps 747 mmHg 88%
    02:00 -8°C° 0 mm 2 mps 747 mmHg 89%
    03:00 -8°C° 0 mm 3 mps 747 mmHg 90%
    04:00 -7°C° 0 mm 3 mps 746 mmHg 91%
    05:00 -7°C° 0 mm 3 mps 746 mmHg 90%
    06:00 -8°C° 0 mm 3 mps 745 mmHg 90%
    07:00 -8°C° 0 mm 3 mps 745 mmHg 89%
    08:00 -7°C° 0 mm 3 mps 745 mmHg 89%
    09:00 -7°C° 0 mm 3 mps 744 mmHg 89%
    10:00 -6°C° 0 mm 3 mps 744 mmHg 88%
    11:00 -7°C° 0.4 mm 4 mps 744 mmHg 91%
    12:00 -7°C° 0.4 mm 4 mps 744 mmHg 93%
    13:00 -7°C° 0.4 mm 4 mps 744 mmHg 95%
    14:00 -7°C° 0.4 mm 4 mps 743 mmHg 95%
    15:00 -7°C° 0.4 mm 4 mps 743 mmHg 95%
    16:00 -7°C° 0.4 mm 4 mps 743 mmHg 95%
    17:00 -8°C° 0.1 mm 4 mps 743 mmHg 95%
    18:00 -8°C° 0.1 mm 3 mps 743 mmHg 95%
    19:00 -9°C° 0.1 mm 3 mps 743 mmHg 95%
    20:00 -8°C° 0.1 mm 2 mps 743 mmHg 95%
    21:00 -8°C° 0.1 mm 2 mps 743 mmHg 95%
    22:00 -8°C° 0.1 mm 2 mps 743 mmHg 95%
    23:00 -9°C° 0.2 mm 3 mps 742 mmHg 95%
    Show more